Terminal Aerodrome Forecast
Issued by NWS Northern Indiana

Home | Current Version | Previous Version | Graphics & Text | Print | Product List | Glossary On
Versions: 1 2 3 4 5 6 7 8 9 10 11 12 13 14 15 16 17 18
000
FTUS43 KIWX 241100
TAFFWA
TAF
KFWA 241120Z 2412/2512 08011KT P6SM BKN250
     FM250000 10014KT P6SM BKN050 OVC100
     FM250700 14017KT 2SM RA BR OVC008 WS020/18055KT=

USA.gov is the U.S. government's official web portal to all federal, state and local government web resources and services.